Location: Trondheim
(63.4170°N, 10.4170°E)
Time: 09:19:04
(UTC+02:00)

ISS - Visible Passes

Search period start: 29 March 2017 00:00
Search period end: 08 April 2017 00:00
Orbit: 399 x 409 km, 51.6° (Epoch: 29 March)

Date Brightness Start Highest point End Pass type
(mag) Time Alt. Az. Time Alt. Az. Time Alt. Az.
01 Apr -1.3 22:20:24 10° SSW 22:20:37 10° SSW 22:20:37 10° SSW visible
02 Apr -1.5 21:28:35 10° S 21:29:21 11° S 21:30:05 10° SSE visible
03 Apr -1.4 22:11:42 10° SSW 22:12:37 11° S 22:12:46 11° S visible
04 Apr -1.4 21:19:27 10° SSW 21:20:29 11° S 21:21:31 10° SSE visible
06 Apr -1.3 21:10:49 10° SSW 21:11:35 11° S 21:12:21 10° S visible
